W4RJF Weather Reports


Display with metric or nautical units.
time (UTC)temp
F
wind
direction
speed
MPH
gust
MPH
rain 1hr
in
rain 24hr
in
rain mn
in
humidity
%
barometer
mb
20260906101505 73 93 0.0 2.0 0.00 0.00 0.00 93 1012.4
20260906101005 73 84 0.0 0.0 0.00 0.00 0.00 94 1012.3
20260906100505 73 85 0.0 0.0 0.00 0.00 0.00 94 1012.2
20260906100012 73 81 0.0 0.0 0.00 0.00 0.00 94 1012.1
20260906095504 73 81 0.0 1.0 0.00 0.00 0.00 94 1012.0
20260906095008 73 81 0.0 0.0 0.00 0.00 0.00 94 1011.9
20260906094522 73 81 0.0 0.0 0.00 0.00 0.00 94 1011.8
20260906094010 73 81 0.0 0.0 0.00 0.00 0.00 94 1011.8
20260906093512 73 81 0.0 2.0 0.00 0.00 0.00 94 1011.8
20260906093031 73 80 0.0 2.0 0.00 0.00 0.00 94 1011.7
20260906092514 73 73 0.0 1.0 0.00 0.00 0.00 94 1011.7
20260906092015 73 78 0.0 0.0 0.00 0.00 0.00 94 1011.8
20260906091528 73 78 0.0 0.0 0.00 0.00 0.00 94 1011.6
20260906091004 73 78 0.0 0.0 0.00 0.00 0.00 94 1011.6
20260906090507 73 78 0.0 0.0 0.00 0.00 0.00 94 1011.6
20260906090009 73 78 0.0 0.0 0.00 0.00 0.00 94 1011.7
20260906085506 73 78 0.0 0.0 0.00 0.00 0.00 94 1011.6
20260906085007 73 71 0.0 0.0 0.00 0.00 0.00 94 1011.5
20260906084515 73 278 0.0 1.0 0.00 0.00 0.00 94 1011.4
20260906084009 73 278 0.0 1.0 0.00 0.00 0.00 94 1011.5
20260906083509 73 279 0.0 0.0 0.00 0.00 0.00 94 1011.4
20260906083025 73 279 0.0 0.0 0.00 0.00 0.00 94 1011.4
20260906082515 73 56 0.0 0.0 0.00 0.00 0.00 94 1011.2
20260906082010 73 56 0.0 0.0 0.00 0.00 0.00 94 1011.3
20260906081530 72 56 0.0 0.0 0.00 0.00 0.00 94 1011.2
20260906081012 72 56 0.0 0.0 0.00 0.00 0.00 94 1011.1
20260906080515 72 56 0.0 0.0 0.00 0.00 0.00 94 1011.1
20260906080010 72 56 0.0 0.0 0.00 0.00 0.00 95 1011.0
20260906075506 72 56 0.0 0.0 0.00 0.00 0.00 95 1011.0
20260906075006 72 56 0.0 0.0 0.00 0.00 0.00 95 1010.9
20260906074514 72 56 0.0 0.0 0.00 0.00 0.00 94 1010.9
20260906074007 72 56 0.0 0.0 0.00 0.00 0.00 94 1010.7
20260906073509 72 56 0.0 0.0 0.00 0.00 0.00 94 1010.7
20260906073021 72 56 0.0 0.0 0.00 0.00 0.00 94 1010.8
20260906072510 72 56 0.0 0.0 0.00 0.00 0.00 94 1010.7
20260906072010 72 56 0.0 0.0 0.00 0.00 0.00 94 1010.8
20260906071523 72 56 0.0 0.0 0.00 0.00 0.00 95 1010.8
20260906071014 72 56 0.0 0.0 0.00 0.00 0.00 94 1010.9
20260906070517 72 56 0.0 0.0 0.00 0.00 0.00 95 1010.9
20260906070031 72 56 0.0 0.0 0.00 0.00 0.00 94 1010.8
20260906065515 72 56 0.0 0.0 0.00 0.00 0.00 94 1010.8
20260906065017 72 56 0.0 0.0 0.00 0.00 0.00 94 1010.9
20260906064514 72 56 0.0 0.0 0.00 0.00 0.00 94 1011.0
20260906064006 72 56 0.0 0.0 0.00 0.00 0.00 94 1011.1
20260906063506 72 56 0.0 0.0 0.00 0.00 0.00 94 1011.1
20260906063016 72 56 0.0 0.0 0.00 0.00 0.00 94 1011.1
20260906062509 72 56 0.0 0.0 0.00 0.00 0.00 94 1011.1
20260906062011 72 56 0.0 0.0 0.00 0.00 0.00 94 1011.1
20260906061526 72 56 0.0 0.0 0.00 0.00 0.00 94 1011.1
20260906061011 72 56 0.0 0.0 0.00 0.00 0.00 94 1011.2
20260906060519 72 56 0.0 0.0 0.00 0.00 0.00 94 1011.2
20260906060029 72 56 0.0 0.0 0.00 0.00 0.00 94 1011.4
20260906055515 72 56 0.0 0.0 0.00 0.00 0.00 94 1011.4
20260906055016 72 56 0.0 0.0 0.00 0.00 0.00 94 1011.3
20260906054533 72 56 0.0 0.0 0.00 0.00 0.00 94 1011.5
20260906054014 72 56 0.0 0.0 0.00 0.00 0.00 94 1011.6
20260906053504 72 56 0.0 0.0 0.00 0.00 0.00 94 1011.5
20260906053020 72 56 0.0 0.0 0.00 0.00 0.00 94 1011.6
20260906052508 72 56 0.0 0.0 0.00 0.00 0.00 94 1011.6
20260906052010 72 56 0.0 0.0 0.00 0.00 0.00 94 1011.7
20260906051523 72 56 0.0 0.0 0.00 0.00 0.00 94 1011.9
20260906051012 72 56 0.0 0.0 0.00 0.00 0.00 94 1011.9
20260906050517 72 56 0.0 0.0 0.00 0.00 0.00 93 1012.0
20260906050028 72 56 0.0 0.0 0.00 0.00 0.00 93 1012.0
20260906045515 72 56 0.0 0.0 0.00 0.00 0.00 93 1012.0
20260906045014 73 56 0.0 0.0 0.00 0.00 0.00 93 1012.0
20260906044533 73 56 0.0 0.0 0.00 0.00 0.00 93 1012.0
20260906044018 73 56 0.0 0.0 0.00 0.00 0.00 93 1012.0
20260906043516 73 56 0.0 0.0 0.00 0.00 0.00 93 1012.0
20260906043031 73 56 0.0 0.0 0.00 0.00 0.00 93 1012.1
20260906042515 73 56 0.0 0.0 0.00 0.00 0.00 94 1012.0
20260906042007 73 56 0.0 0.0 0.00 0.00 0.00 94 1012.1
20260906041523 73 56 0.0 0.0 0.00 0.00 0.00 93 1012.1
20260906041010 73 56 0.0 0.0 0.00 0.00 0.00 93 1012.2
20260906040511 73 86 0.0 0.0 0.00 0.00 0.00 93 1012.1
20260906040027 73 86 0.0 0.0 0.00 0.00 0.00 93 1012.1
20260906035513 73 86 0.0 0.0 0.00 0.00 0.00 93 1012.1
20260906035014 73 86 0.0 0.0 0.00 0.00 0.00 93 1012.0
20260906034533 73 86 0.0 0.0 0.00 0.00 0.00 93 1012.2
20260906034015 73 86 0.0 0.0 0.00 0.00 0.00 93 1012.3
20260906033515 73 86 0.0 0.0 0.00 0.00 0.00 92 1012.2
20260906033016 73 86 0.0 0.0 0.00 0.00 0.00 92 1012.2
20260906032505 73 86 0.0 0.0 0.00 0.00 0.00 92 1012.3
20260906032007 73 86 0.0 0.0 0.00 0.00 0.00 92 1012.3
20260906031513 73 86 0.0 0.0 0.00 0.00 0.00 92 1012.3
20260906031008 74 86 0.0 0.0 0.00 0.00 0.00 91 1012.3
20260906030510 74 86 0.0 0.0 0.00 0.00 0.00 91 1012.1
20260906030024 74 86 0.0 0.0 0.00 0.00 0.00 90 1012.1
20260906025505 74 86 0.0 0.0 0.00 0.00 0.00 90 1012.2
20260906025003 74 86 0.0 0.0 0.00 0.00 0.00 90 1012.1
20260906024503 74 86 0.0 0.0 0.00 0.00 0.00 90 1012.1
20260906024007 74 86 0.0 0.0 0.00 0.00 0.00 89 1012.2
20260906023504 75 86 0.0 0.0 0.00 0.00 0.00 89 1012.3
20260906023008 75 86 0.0 0.0 0.00 0.00 0.00 89 1012.2
20260906022505 75 86 0.0 0.0 0.00 0.00 0.00 89 1012.1
20260906022008 75 86 0.0 0.0 0.00 0.00 0.00 89 1012.1
20260906021516 74 88 0.0 0.0 0.00 0.00 0.00 89 1012.0
20260906021007 74 88 0.0 0.0 0.00 0.00 0.00 89 1011.9
20260906020509 74 88 0.0 0.0 0.00 0.00 0.00 90 1012.0
20260906020020 74 31 0.0 0.0 0.00 0.00 0.00 90 1012.0
20260906015510 74 28 0.0 0.0 0.00 0.00 0.00 90 1012.1
20260906015010 74 28 0.0 0.0 0.00 0.00 0.00 90 1012.1
20260906014533 75 348 0.0 0.0 0.00 0.00 0.00 90 1012.0
20260906014004 75 348 0.0 0.0 0.00 0.00 0.00 91 1011.9
20260906013504 75 348 0.0 0.0 0.00 0.00 0.00 91 1012.0
20260906013006 75 348 0.0 0.0 0.00 0.00 0.00 91 1012.0
20260906012503 75 336 0.0 0.0 0.00 0.00 0.00 92 1011.8
20260906012007 75 319 0.0 0.0 0.00 0.00 0.00 91 1011.7
20260906011510 75 319 0.0 0.0 0.00 0.00 0.00 91 1011.7
20260906011006 75 319 0.0 0.0 0.00 0.00 0.00 91 1011.7
20260906010507 75 319 0.0 0.0 0.00 0.00 0.00 91 1011.7
20260906010015 75 319 0.0 0.0 0.00 0.00 0.00 91 1011.6
20260906005507 75 319 0.0 0.0 0.00 0.00 0.00 90 1011.7
20260906005015 75 319 0.0 0.0 0.00 0.00 0.00 90 1011.7
20260906004525 75 319 0.0 0.0 0.00 0.00 0.00 90 1011.5
20260906004012 75 319 0.0 0.0 0.00 0.00 0.00 90 1011.6
20260906003511 75 319 0.0 0.0 0.00 0.00 0.00 90 1011.6
20260906003003 75 319 0.0 0.0 0.00 0.00 0.00 90 1011.5
20260906002504 75 319 0.0 0.0 0.00 0.00 0.00 89 1011.5
20260906002004 75 350 0.0 0.0 0.00 0.00 0.00 89 1011.3
20260906001508 76 350 0.0 0.0 0.00 0.00 0.00 89 1011.2
20260906001005 76 350 0.0 0.0 0.00 0.00 0.00 88 1011.1
20260906000507 76 350 0.0 0.0 0.00 0.00 0.00 87 1010.9
20260906000013 76 350 0.0 0.0 0.00 0.00 0.00 87 1010.9
20260905235508 76 350 0.0 2.0 0.00 0.00 0.00 87 1010.9
20260905235009 76 352 0.0 2.0 0.00 0.00 0.00 87 1010.8
20260905234519 76 352 0.0 1.0 0.00 0.00 0.00 87 1010.7
20260905234008 77 352 0.0 1.0 0.00 0.00 0.00 87 1010.7
20260905233512 77 352 0.0 0.0 0.00 0.00 0.00 88 1010.8
20260905233024 77 352 0.0 0.0 0.00 0.00 0.00 87 1010.7
20260905232514 77 352 0.0 0.0 0.00 0.00 0.00 87 1010.4
20260905232004 77 351 0.0 0.0 0.00 0.00 0.00 87 1010.5
20260905231508 77 350 0.0 0.0 0.00 0.00 0.00 87 1010.6
20260905231003 77 351 0.0 0.0 0.00 0.00 0.00 87 1010.5
20260905230508 77 351 0.0 0.0 0.00 0.00 0.00 87 1010.1
20260905230011 76 338 0.0 0.0 0.00 0.00 0.00 88 1009.9
20260905225505 76 338 0.0 0.0 0.00 0.00 0.00 88 1009.8
20260905225009 76 338 0.0 1.0 0.00 0.00 0.00 88 1009.8
20260905224520 76 337 0.0 1.0 0.00 0.00 0.00 88 1009.7
20260905224009 76 304 0.0 0.0 0.00 0.00 0.00 88 1009.7
20260905223509 76 302 0.0 0.0 0.00 0.00 0.00 89 1009.7
20260905223025 75 302 0.0 0.0 0.00 0.00 0.00 89 1009.8
20260905222510 76 317 0.0 2.0 0.00 0.00 0.00 89 1010.0
20260905222014 76 317 0.0 2.0 0.00 0.00 0.00 89 1010.2
20260905221536 76 343 0.0 2.0 0.00 0.00 0.00 89 1010.3
20260905221014 76 330 0.0 2.0 0.00 0.00 0.00 89 1010.2
20260905220504 75 257 0.0 0.0 0.00 0.00 0.00 89 1010.1
20260905220009 75 203 0.0 0.0 0.00 0.00 0.00 90 1010.4
20260905215505 75 203 0.0 1.0 0.00 0.00 0.00 90 1010.5
20260905215005 75 203 0.0 1.0 0.00 0.00 0.00 91 1010.3
20260905214514 75 203 0.0 1.0 0.00 0.00 0.00 91 1010.2
20260905214008 75 275 0.0 0.0 0.00 0.00 0.00 90 1010.4
20260905213510 75 9 0.0 0.0 0.00 0.00 0.00 90 1010.2
20260905213031 75 9 0.0 0.0 0.00 0.00 0.00 90 1010.0
20260905212512 75 9 0.0 0.0 0.00 0.00 0.00 89 1009.8
20260905212013 76 9 0.0 0.0 0.00 0.00 0.00 87 1010.0
20260905211533 76 9 0.0 0.0 0.00 0.00 0.00 85 1010.1
20260905211015 77 9 0.0 0.0 0.00 0.00 0.00 81 1010.1
20260905210515 78 9 0.0 0.0 0.00 0.00 0.00 79 1010.1
20260905210032 79 5 0.0 0.0 0.00 0.00 0.00 76 1010.2
20260905205504 80 108 0.0 2.0 0.00 0.00 0.00 74 1010.1
20260905205005 80 108 0.0 2.0 0.00 0.00 0.00 73 1010.2
20260905204510 80 94 0.0 2.0 0.00 0.00 0.00 72 1010.1
20260905204005 81 34 0.0 2.0 0.00 0.00 0.00 71 1010.4
20260905203508 82 63 0.0 2.0 0.00 0.00 0.00 71 1010.1
20260905203019 82 105 0.0 2.0 0.00 0.00 0.00 69 1009.9
20260905202509 82 89 0.0 3.0 0.00 0.00 0.00 68 1010.3
20260905202010 83 320 1.0 3.0 0.00 0.00 0.00 67 1010.6
20260905201527 83 115 0.0 4.0 0.00 0.00 0.00 66 1010.4
20260905201011 84 89 1.0 4.0 0.00 0.00 0.00 64 1010.3
20260905200516 85 96 2.0 5.0 0.00 0.00 0.00 63 1010.3
20260905200028 86 280 0.0 7.0 0.00 0.00 0.00 61 1010.2
20260905195515 87 352 1.0 13.0 0.00 0.00 0.00 59 1010.1
20260905195017 90 205 1.0 13.0 0.00 0.00 0.00 56 1009.8
20260905194511 94 335 3.0 10.0 0.00 0.00 0.00 48 1010.0
20260905194005 94 291 0.0 2.0 0.00 0.00 0.00 46 1009.8
20260905193506 95 49 0.0 2.0 0.00 0.00 0.00 46 1009.7
20260905193016 96 331 0.0 2.0 0.00 0.00 0.00 43 1009.5
20260905192511 96 127 0.0 2.0 0.00 0.00 0.00 43 1009.3
20260905192009 97 243 0.0 1.0 0.00 0.00 0.00 45 1009.3
20260905191521 97 46 0.0 2.0 0.00 0.00 0.00 45 1009.2
20260905191011 97 146 0.0 2.0 0.00 0.00 0.00 44 1009.3
20260905190514 97 263 0.0 2.0 0.00 0.00 0.00 43 1009.3
20260905190032 96 275 0.0 2.0 0.00 0.00 0.00 46 1009.5
20260905185514 97 254 0.0 4.0 0.00 0.00 0.00 43 1009.4
20260905185013 97 35 1.0 4.0 0.00 0.00 0.00 44 1009.4
20260905184541 98 304 1.0 3.0 0.00 0.00 0.00 43 1009.4
20260905184014 98 89 0.0 3.0 0.00 0.00 0.00 45 1009.5
20260905183515 97 325 0.0 4.0 0.00 0.00 0.00 46 1009.6
20260905183012 96 336 1.0 4.0 0.00 0.00 0.00 45 1009.8
20260905182507 96 266 0.0 3.0 0.00 0.00 0.00 45 1010.0
20260905182007 96 336 1.0 3.0 0.00 0.00 0.00 45 1010.1
20260905181518 95 273 0.0 2.0 0.00 0.00 0.00 48 1010.1
20260905181008 95 328 1.0 3.0 0.00 0.00 0.00 48 1010.1
20260905180512 95 340 0.0 3.0 0.00 0.00 0.00 48 1010.3
20260905180027 96 340 1.0 5.0 0.00 0.00 0.00 47 1010.4
20260905175512 97 342 2.0 5.0 0.00 0.00 0.00 46 1010.6
20260905175016 96 338 2.0 5.0 0.00 0.00 0.00 47 1010.7
20260905174540 95 290 0.0 4.0 0.00 0.00 0.00 51 1010.8
20260905174013 95 333 1.0 4.0 0.00 0.00 0.00 51 1011.0
20260905173515 95 349 1.0 4.0 0.00 0.00 0.00 49 1011.2
20260905173037 95 240 1.0 4.0 0.00 0.00 0.00 50 1011.3
20260905172514 94 54 0.0 9.0 0.00 0.00 0.00 51 1011.4
20260905172006 94 346 1.0 9.0 0.00 0.00 0.00 51 1011.5
20260905171520 94 197 0.0 8.0 0.00 0.00 0.00 51 1011.5
20260905171010 94 326 0.0 6.0 0.00 0.00 0.00 52 1011.6
20260905170509 94 231 2.0 5.0 0.00 0.00 0.00 53 1011.6
20260905170023 93 360 0.0 4.0 0.00 0.00 0.00 53 1011.7
20260905165511 93 75 0.0 4.0 0.00 0.00 0.00 54 1011.6
20260905165013 93 20 0.0 4.0 0.00 0.00 0.00 55 1011.8
20260905164530 93 344 1.0 3.0 0.00 0.00 0.00 54 1011.8
20260905164014 92 346 0.0 3.0 0.00 0.00 0.00 55 1011.8
20260905163515 92 32 0.0 3.0 0.00 0.00 0.00 55 1011.9
20260905163032 92 348 1.0 2.0 0.00 0.00 0.00 54 1012.0
20260905162516 92 163 0.0 2.0 0.00 0.00 0.00 54 1012.1
20260905162017 92 103 0.0 2.0 0.00 0.00 0.00 54 1012.2
20260905161534 91 119 0.0 2.0 0.00 0.00 0.00 56 1012.2
20260905161018 91 95 0.0 6.0 0.00 0.00 0.00 58 1012.2
20260905160509 90 261 0.0 6.0 0.00 0.00 0.00 58 1012.3
20260905160022 90 200 0.0 3.0 0.00 0.00 0.00 60 1012.5
20260905155511 90 261 0.0 3.0 0.00 0.00 0.00 62 1012.4
20260905155011 89 234 0.0 3.0 0.00 0.00 0.00 62 1012.7
20260905154528 89 317 0.0 2.0 0.00 0.00 0.00 62 1012.7
20260905154014 89 101 0.0 4.0 0.00 0.00 0.00 63 1012.7
20260905153513 89 22 1.0 4.0 0.00 0.00 0.00 62 1012.8
20260905153032 89 352 0.0 3.0 0.00 0.00 0.00 64 1012.7
20260905152516 88 309 0.0 2.0 0.00 0.00 0.00 64 1012.8
20260905152016 88 99 0.0 2.0 0.00 0.00 0.00 65 1012.7
20260905151534 88 39 0.0 2.0 0.00 0.00 0.00 64 1012.8
20260905151018 88 343 1.0 4.0 0.00 0.00 0.00 64 1012.9
20260905150519 88 316 2.0 4.0 0.00 0.00 0.00 67 1012.9
20260905150037 87 77 0.0 4.0 0.00 0.00 0.00 68 1012.7
20260905145509 87 15 1.0 4.0 0.00 0.00 0.00 68 1012.8
20260905145012 87 241 0.0 1.0 0.00 0.00 0.00 68 1012.9
20260905144527 86 220 0.0 0.0 0.00 0.00 0.00 69 1012.8
20260905144015 86 239 0.0 2.0 0.00 0.00 0.00 71 1012.7
20260905143512 85 239 0.0 2.0 0.00 0.00 0.00 70 1012.8
20260905143031 85 167 0.0 1.0 0.00 0.00 0.00 71 1012.9
20260905142514 85 200 0.0 1.0 0.00 0.00 0.00 71 1012.9
20260905142015 84 234 0.0 1.0 0.00 0.00 0.00 73 1012.9
20260905141531 84 266 0.0 0.0 0.00 0.00 0.00 75 1012.8
20260905141017 84 199 0.0 0.0 0.00 0.00 0.00 77 1012.8
20260905140516 83 186 0.0 2.0 0.00 0.00 0.00 76 1012.7
20260905140034 83 227 0.0 2.0 0.00 0.00 0.00 76 1012.9
20260905135518 83 213 0.0 4.0 0.00 0.00 0.00 77 1012.8
20260905135018 83 317 0.0 4.0 0.00 0.00 0.00 78 1012.7
20260905134522 82 243 0.0 2.0 0.00 0.00 0.00 78 1012.9
20260905134013 82 351 0.0 2.0 0.00 0.00 0.00 80 1012.9
20260905133511 82 184 0.0 2.0 0.00 0.00 0.00 81 1012.9
20260905133028 81 91 0.0 0.0 0.00 0.00 0.00 81 1012.9
20260905132512 81 179 0.0 2.0 0.00 0.00 0.00 81 1012.9
20260905132016 81 178 0.0 2.0 0.00 0.00 0.00 83 1012.8
20260905131546 80 227 0.0 2.0 0.00 0.00 0.00 83 1012.8
20260905131016 80 200 0.0 2.0 0.00 0.00 0.00 84 1012.9
20260905130516 80 215 0.0 2.0 0.00 0.00 0.00 84 1012.9
20260905130036 79 217 0.0 1.0 0.00 0.00 0.00 85 1013.0
20260905125518 78 217 0.0 0.0 0.00 0.00 0.00 86 1013.0
20260905125015 78 176 0.0 0.0 0.00 0.00 0.00 87 1013.0
20260905124539 77 194 0.0 0.0 0.00 0.00 0.00 88 1013.2
20260905124017 77 194 0.0 0.0 0.00 0.00 0.00 89 1013.0
20260905123514 76 194 0.0 0.0 0.00 0.00 0.00 89 1013.2
20260905123025 76 194 0.0 0.0 0.00 0.00 0.00 89 1013.1
20260905122514 75 194 0.0 0.0 0.00 0.00 0.00 90 1013.1
20260905122013 75 194 0.0 0.0 0.00 0.00 0.00 90 1013.0
20260905121534 74 194 0.0 0.0 0.00 0.00 0.00 90 1013.0
20260905121017 74 194 0.0 0.0 0.00 0.00 0.00 90 1013.0
20260905120514 74 194 0.0 0.0 0.00 0.00 0.00 90 1013.0
20260905120034 74 194 0.0 0.0 0.00 0.00 0.00 90 1013.0
20260905115517 73 194 0.0 0.0 0.00 0.00 0.00 90 1013.0
20260905115019 73 194 0.0 0.0 0.00 0.00 0.00 90 1013.0
20260905114542 73 194 0.0 0.0 0.00 0.00 0.00 90 1013.0
20260905114016 73 194 0.0 0.0 0.00 0.00 0.00 91 1012.9
20260905113510 72 194 0.0 0.0 0.00 0.00 0.00 91 1012.8
20260905113004 72 194 0.0 0.0 0.00 0.00 0.00 91 1012.5
20260905112503 72 194 0.0 0.0 0.00 0.00 0.00 91 1012.4
20260905112002 72 194 0.0 0.0 0.00 0.00 0.00 91 1012.6
20260905111510 72 194 0.0 0.0 0.00 0.00 0.00 90 1012.6
20260905111004 72 194 0.0 0.0 0.00 0.00 0.00 90 1012.7
20260905110504 72 194 0.0 0.0 0.00 0.00 0.00 90 1012.7
20260905110012 72 194 0.0 0.0 0.00 0.00 0.00 90 1012.5
20260905105506 72 194 0.0 0.0 0.00 0.00 0.00 90 1012.5
20260905105008 72 194 0.0 0.0 0.00 0.00 0.00 90 1012.3
20260905104516 72 194 0.0 0.0 0.00 0.00 0.00 90 1012.2
20260905104009 72 194 0.0 0.0 0.00 0.00 0.00 89 1012.2
20260905103512 72 194 0.0 0.0 0.00 0.00 0.00 89 1012.1
20260905103031 72 194 0.0 0.0 0.00 0.00 0.00 89 1012.1
20260905102511 72 194 0.0 0.0 0.00 0.00 0.00 90 1012.0
20260905102002 72 194 0.0 0.0 0.00 0.00 0.00 89 1012.0